Burnsville, North Carolina, United States (28714)
Lat: 35.92N, Lon: 82.3W
Wx Zone: NCZ049
Local Info
Past Weather Observations for Tuesday, February 9, 2016

NOTE: This archive is for the closest National Weather Service station to Burnsville. Information may differ from the station used for current weather conditions.

Click here for Long-term Archive

Time Weather Temperature Dewpoint Humidity Pressure Winds Precip Visibility
23:54
Overcast
Light Snow
21°F / -6°C 12°F / -11°C 68% 29.83 in
(1010 mb)
NNW 11.5 mph
(NNW 19 kph)
0.00 in
(0.00 mm)
9SM
22:54
Clear
21°F / -6°C 14°F / -10°C 74% 29.83 in
(1010 mb)
NNW 12.7 mph
(NNW 20 kph)
- 10SM
21:54
Clear
21°F / -6°C 14°F / -10°C 74% 29.83 in
(1010 mb)
NNW 12.7 mph
(NNW 20 kph)
- 10SM
20:54
Overcast
21°F / -6°C 14°F / -10°C 74% 29.83 in
(1010 mb)
N 9.2 mph
(N 15 kph)
- 10SM
19:54
Mostly Cloudy
21°F / -6°C 12°F / -11°C 68% 29.8 in
(1009 mb)
NNW 13.8 mph
(NNW 22 kph)
- 10SM
18:54
Overcast
25°F / -4°C 10°F / -12°C 54% 29.8 in
(1009 mb)
NNW 10.4 mph
(NNW 17 kph)
- 10SM
17:54
Overcast
25°F / -4°C 12°F / -11°C 59% 29.77 in
(1008 mb)
N 15 mph
(N 24 kph)
- 10SM
16:54
Overcast
25°F / -4°C 12°F / -11°C 59% 29.74 in
(1007 mb)
N 12.7 mph
(N 20 kph)
- 10SM
15:54
Overcast
28°F / -2°C 10°F / -12°C 47% 29.71 in
(1006 mb)
NNW 9.2 mph
(NNW 15 kph)
- 10SM
14:54
Overcast
27°F / -3°C 10°F / -12°C 50% 29.68 in
(1005 mb)
N 10.4 mph
(N 17 kph)
- 10SM
13:54
Overcast
28°F / -2°C 9°F / -13°C 43% 29.68 in
(1005 mb)
NW 12.7 mph
(NW 20 kph)
- 10SM
12:54
Overcast
28°F / -2°C 9°F / -13°C 43% 29.68 in
(1005 mb)
NW 12.7 mph
(NW 20 kph)
0.00 in
(0.00 mm)
10SM
11:54
Overcast
Light Snow
28°F / -2°C 10°F / -12°C 47% 29.68 in
(1005 mb)
NW 10.4 mph
(NW 17 kph)
0.00 in
(0.00 mm)
9SM
10:54
Overcast
Light Snow
27°F / -3°C 12°F / -11°C 54% 29.71 in
(1006 mb)
NW 11.5 mph
(NW 19 kph)
0.00 in
(0.00 mm)
9SM
09:54
Overcast
Light Snow
27°F / -3°C 14°F / -10°C 59% 29.68 in
(1005 mb)
NNW 12.7 mph
(NNW 20 kph)
0.00 in
(0.00 mm)
9SM
08:54
Overcast
Light Snow
27°F / -3°C 12°F / -11°C 54% 29.68 in
(1005 mb)
NNW 8.1 mph
(NNW 13 kph)
0.00 in
(0.00 mm)
9SM
07:54
Overcast
Light Snow
27°F / -3°C 16°F / -9°C 64% 29.68 in
(1005 mb)
NNW 9.2 mph
(NNW 15 kph)
0.00 in
(0.00 mm)
9SM
06:54
Overcast
Light Snow
27°F / -3°C 18°F / -8°C 69% 29.68 in
(1005 mb)
NNW 9.2 mph
(NNW 15 kph)
0.00 in
(0.00 mm)
9SM
05:54
Overcast
Light Snow
25°F / -4°C 19°F / -7°C 80% 29.65 in
(1004 mb)
NNW 6.9 mph
(NNW 11 kph)
0.00 in
(0.00 mm)
6SM
04:54
Overcast
Light Snow
27°F / -3°C 19°F / -7°C 74% 29.65 in
(1004 mb)
NNW 15 mph
(NNW 24 kph)
0.00 in
(0.00 mm)
9SM
03:54
Mostly Cloudy
Light Snow
27°F / -3°C 19°F / -7°C 74% 29.65 in
(1004 mb)
N 8.1 mph
(N 13 kph)
0.00 in
(0.00 mm)
9SM
03:47
Overcast
Light Snow
27°F / -3°C 19°F / -7°C 74% 29.65 in
(1004 mb)
N 9.2 mph
(N 15 kph)
0.00 in
(0.00 mm)
9SM
03:26
Overcast
Light Snow
27°F / -3°C 19°F / -7°C 74% 29.65 in
(1004 mb)
N 4.6 mph
(N 7 kph)
0.00 in
(0.00 mm)
9SM
02:54
Partly Cloudy
Light Snow
27°F / -3°C 19°F / -7°C 74% 29.65 in
(1004 mb)
N 11.5 mph
(N 19 kph)
0.00 in
(0.00 mm)
9SM
01:54
Partly Cloudy
Light Snow
30°F / -1°C 12°F / -11°C 47% 29.65 in
(1004 mb)
NNW 11.5 mph
(NNW 19 kph)
0.00 in
(0.00 mm)
9SM
00:54
Overcast
Light Snow
32°F / 0°C 21°F / -6°C 64% 29.65 in
(1004 mb)
NNW 11.5 mph
(NNW 19 kph)
0.00 in
(0.00 mm)
9SM
00:24
Overcast
Light Snow
32°F / 0°C 25°F / -4°C 75% 29.65 in
(1004 mb)
N 6.9 mph
(N 11 kph)
0.00 in
(0.00 mm)
9SM
Time Weather Temperature Dewpoint Humidity Pressure Winds Precip Visibility


Weather for websites

WeatherForYou.com, LLC is not responsible for any damages or problems caused by this service. Current weather conditions are obtained from the closest station including government and personal stations which may have varying degrees of accuracy. Weather forecasts are derived from the NOAA NDFD. Like all things, this site belongs to Jesus Christ... He just trusts us to maintain it. If you have any questions or comments email webmaster@weatherforyou.com

Copyright © 2016, WeatherForYou.com LLC. All rights reserved.